EW0531 Weather Reports


Display with metric or nautical units.
time (UTC)temp
F
wind
direction
speed
MPH
gust
MPH
rain 1hr
in
rain 24hr
in
rain mn
in
humidity
%
barometer
mb
20260506025536 52 5 4.0 11.0 0.00 0.00 0.00 73 1012.5
20260506025036 53 63 3.0 9.0 0.00 0.00 0.00 73 1012.5
20260506024555 53 346 4.0 9.0 0.00 0.00 0.00 73 1012.5
20260506024037 53 348 3.0 8.0 0.00 0.00 0.00 73 1012.5
20260506023537 53 11 4.0 8.0 0.00 0.00 0.00 73 1012.5
20260506023047 53 46 2.0 10.0 0.00 0.00 0.00 73 1012.5
20260506022537 53 59 3.0 10.0 0.00 0.00 0.00 73 1012.5
20260506022037 53 27 4.0 10.0 0.00 0.00 0.00 73 1012.5
20260506021547 53 53 3.0 9.0 0.00 0.00 0.00 73 1012.5
20260506021036 53 37 2.0 8.0 0.00 0.00 0.00 73 1012.5
20260506020536 53 61 3.0 8.0 0.00 0.00 0.00 73 1012.5
20260506020049 53 34 3.0 7.0 0.00 0.00 0.00 73 1012.5
20260506015538 53 38 2.0 6.0 0.00 0.00 0.00 73 1012.4
20260506015037 53 32 2.0 10.0 0.00 0.00 0.00 73 1012.5
20260506014557 53 28 3.0 10.0 0.00 0.00 0.00 73 1012.5
20260506014037 53 59 2.0 8.0 0.00 0.00 0.00 73 1012.4
20260506013536 53 17 2.0 8.0 0.00 0.00 0.00 73 1012.4
20260506013051 53 14 2.0 6.0 0.00 0.00 0.00 73 1012.5
20260506012538 53 17 2.0 6.0 0.00 0.00 0.00 73 1012.5
20260506012036 53 13 2.0 6.0 0.00 0.00 0.00 73 1012.5
20260506011546 53 34 2.0 10.0 0.00 0.00 0.00 72 1012.4
20260506011037 53 30 3.0 10.0 0.00 0.00 0.00 72 1012.5
20260506010534 53 336 3.0 9.0 0.00 0.00 0.00 72 1012.5
20260506010053 53 346 3.0 9.0 0.00 0.00 0.00 72 1012.5
20260506005536 53 5 3.0 10.0 0.00 0.00 0.00 72 1012.6
20260506005037 53 15 2.0 10.0 0.00 0.00 0.00 72 1012.5
20260506004553 53 18 3.0 8.0 0.00 0.00 0.00 72 1012.5
20260506004037 53 48 3.0 9.0 0.00 0.00 0.00 72 1012.5
20260506003537 53 22 3.0 9.0 0.00 0.00 0.00 71 1012.6
20260506003049 53 45 4.0 10.0 0.00 0.00 0.00 71 1012.5
20260506002536 54 22 3.0 10.0 0.00 0.00 0.00 71 1012.4
20260506002037 54 29 3.0 10.0 0.00 0.00 0.00 71 1012.4
20260506001556 54 26 3.0 10.0 0.00 0.00 0.00 71 1012.6
20260506001035 54 360 3.0 10.0 0.00 0.00 0.00 71 1012.5
20260506000534 54 5 3.0 9.0 0.00 0.00 0.00 71 1012.6
20260506000047 54 40 3.0 10.0 0.00 0.00 0.00 70 1012.4
20260505235536 54 44 3.0 10.0 0.00 0.00 0.00 70 1012.5
20260505235034 54 10 2.0 9.0 0.00 0.00 0.00 70 1012.5
20260505234548 54 330 3.0 8.0 0.00 0.00 0.00 70 1012.5
20260505234035 54 360 4.0 9.0 0.00 0.00 0.00 70 1012.5
20260505233534 54 25 3.0 11.0 0.00 0.00 0.00 70 1012.5
20260505233059 54 340 4.0 11.0 0.00 0.00 0.00 69 1012.6
20260505232534 54 34 3.0 9.0 0.00 0.00 0.00 69 1012.5
20260505232034 54 326 3.0 9.0 0.00 0.00 0.00 69 1012.6
20260505231550 54 321 3.0 9.0 0.00 0.00 0.00 69 1012.7
20260505231039 54 35 5.0 9.0 0.00 0.00 0.00 69 1012.7
20260505230536 55 13 3.0 9.0 0.00 0.00 0.00 69 1012.7
20260505230051 55 34 3.0 9.0 0.00 0.00 0.00 69 1012.7
20260505225537 55 23 2.0 9.0 0.00 0.00 0.00 68 1012.7
20260505225037 55 332 3.0 9.0 0.00 0.00 0.00 68 1012.7
20260505224549 55 19 3.0 9.0 0.00 0.00 0.00 68 1012.7
20260505224036 55 23 3.0 9.0 0.00 0.00 0.00 68 1012.6
20260505223537 55 13 4.0 13.0 0.00 0.00 0.00 68 1012.7
20260505223051 55 360 3.0 13.0 0.00 0.00 0.00 68 1012.7
20260505222534 55 338 4.0 13.0 0.00 0.00 0.00 68 1012.6
20260505222036 55 321 5.0 12.0 0.00 0.00 0.00 68 1012.7
20260505221553 55 11 3.0 10.0 0.00 0.00 0.00 68 1012.7
20260505221038 55 303 3.0 10.0 0.00 0.00 0.00 68 1012.8
20260505220534 55 27 5.0 11.0 0.00 0.00 0.00 67 1012.7
20260505220048 55 350 6.0 11.0 0.00 0.00 0.00 67 1012.8
20260505215538 55 19 4.0 13.0 0.00 0.00 0.00 67 1012.7
20260505215037 55 21 5.0 13.0 0.00 0.00 0.00 67 1012.7
20260505214548 55 337 4.0 10.0 0.00 0.00 0.00 66 1012.7
20260505214036 55 360 2.0 9.0 0.00 0.00 0.00 66 1012.8
20260505213537 56 9 1.0 9.0 0.00 0.00 0.00 66 1012.8
20260505213051 56 360 4.0 9.0 0.00 0.00 0.00 65 1012.8
20260505212537 56 11 2.0 9.0 0.00 0.00 0.00 65 1012.7
20260505212037 56 5 2.0 10.0 0.00 0.00 0.00 65 1012.7
20260505211546 56 13 3.0 13.0 0.00 0.00 0.00 64 1012.7
20260505211037 56 39 3.0 13.0 0.00 0.00 0.00 64 1012.7
20260505210536 56 349 5.0 11.0 0.00 0.00 0.00 64 1012.7
20260505210042 57 57 3.0 10.0 0.00 0.00 0.00 63 1012.6
20260505205541 57 331 4.0 11.0 0.00 0.00 0.00 63 1012.7
20260505205037 57 333 4.0 11.0 0.00 0.00 0.00 62 1012.7
20260505204553 58 331 2.0 10.0 0.00 0.00 0.00 62 1012.5
20260505204037 58 360 3.0 10.0 0.00 0.00 0.00 61 1012.5
20260505203538 58 340 3.0 10.0 0.00 0.00 0.00 61 1012.5
20260505203050 58 355 2.0 7.0 0.00 0.00 0.00 60 1012.5
20260505202538 58 342 3.0 8.0 0.00 0.00 0.00 60 1012.5
20260505202037 58 345 2.0 8.0 0.00 0.00 0.00 60 1012.5
20260505201548 58 5 2.0 8.0 0.00 0.00 0.00 60 1012.4
20260505201037 58 343 3.0 11.0 0.00 0.00 0.00 60 1012.4
20260505200537 58 16 2.0 11.0 0.00 0.00 0.00 60 1012.4
20260505200049 59 32 4.0 11.0 0.00 0.00 0.00 60 1012.3
20260505195539 59 48 1.0 9.0 0.00 0.00 0.00 60 1012.3
20260505195036 59 36 2.0 9.0 0.00 0.00 0.00 60 1012.3
20260505194556 59 13 3.0 12.0 0.00 0.00 0.00 60 1012.2
20260505194036 59 27 3.0 12.0 0.00 0.00 0.00 60 1012.1
20260505193535 59 17 2.0 10.0 0.00 0.00 0.00 59 1012.2
20260505193104 59 52 4.0 10.0 0.00 0.00 0.00 59 1012.2
20260505192534 59 314 2.0 9.0 0.00 0.00 0.00 59 1012.0
20260505192038 59 35 3.0 9.0 0.00 0.00 0.00 59 1012.1
20260505191548 60 42 3.0 8.0 0.00 0.00 0.00 59 1012.0
20260505191038 60 335 2.0 12.0 0.00 0.00 0.00 59 1012.0
20260505190536 60 343 3.0 12.0 0.00 0.00 0.00 59 1012.0
20260505190046 60 28 5.0 10.0 0.00 0.00 0.00 59 1012.0
20260505185536 60 5 1.0 9.0 0.00 0.00 0.00 60 1011.9
20260505185037 60 13 3.0 7.0 0.00 0.00 0.00 59 1011.9
20260505184551 60 355 2.0 8.0 0.00 0.00 0.00 59 1011.9
20260505184041 60 28 3.0 8.0 0.00 0.00 0.00 59 1011.8
20260505183536 60 24 3.0 8.0 0.00 0.00 0.00 58 1011.8
20260505183049 60 348 2.0 10.0 0.00 0.00 0.00 58 1011.8
20260505182534 60 30 4.0 10.0 0.00 0.00 0.00 58 1011.8
20260505182037 60 352 4.0 12.0 0.00 0.00 0.00 58 1011.8
20260505181541 60 342 5.0 12.0 0.00 0.00 0.00 58 1011.8
20260505181037 60 22 3.0 9.0 0.00 0.00 0.00 58 1011.7
20260505180538 61 340 2.0 12.0 0.00 0.00 0.00 58 1011.8
20260505180046 61 36 3.0 12.0 0.00 0.00 0.00 58 1011.8
20260505175537 61 42 5.0 12.0 0.00 0.00 0.00 58 1011.7
20260505175039 61 9 4.0 13.0 0.00 0.00 0.00 58 1011.7
20260505174547 61 19 5.0 13.0 0.00 0.00 0.00 58 1011.8
20260505174037 61 27 5.0 11.0 0.00 0.00 0.00 58 1011.7
20260505173536 61 23 3.0 11.0 0.00 0.00 0.00 58 1011.8
20260505173046 61 348 3.0 11.0 0.00 0.00 0.00 58 1011.8
20260505172536 61 49 3.0 11.0 0.00 0.00 0.00 58 1011.9
20260505172037 61 26 4.0 11.0 0.00 0.00 0.00 57 1011.9
20260505171550 61 24 5.0 11.0 0.00 0.00 0.00 57 1012.0
20260505171037 61 22 4.0 11.0 0.00 0.00 0.00 57 1011.9
20260505170536 61 40 2.0 9.0 0.00 0.00 0.00 57 1012.0
20260505170046 61 355 2.0 13.0 0.00 0.00 0.00 58 1012.0
20260505165534 61 40 3.0 13.0 0.00 0.00 0.00 58 1012.1
20260505165037 61 13 4.0 9.0 0.00 0.00 0.00 57 1012.0
20260505164547 61 355 3.0 9.0 0.00 0.00 0.00 57 1012.0
20260505164033 61 0 3.0 11.0 0.00 0.00 0.00 57 1012.1
20260505163537 61 38 4.0 11.0 0.00 0.00 0.00 56 1012.0
20260505163048 62 58 4.0 9.0 0.00 0.00 0.00 56 1012.0
20260505162538 62 0 1.0 10.0 0.00 0.00 0.00 57 1012.0
20260505162038 62 26 3.0 13.0 0.00 0.00 0.00 57 1012.1
20260505161556 62 0 2.0 13.0 0.00 0.00 0.00 57 1012.1
20260505161037 62 46 6.0 12.0 0.00 0.00 0.00 56 1012.1
20260505160537 62 19 1.0 12.0 0.00 0.00 0.00 57 1012.0
20260505153101 62 20 3.0 12.0 0.00 0.00 0.00 55 1012.1
20260505152537 62 319 3.0 12.0 0.00 0.00 0.00 56 1012.2
20260505152037 63 22 2.0 12.0 0.00 0.00 0.00 55 1012.1
20260505151549 62 54 0.0 10.0 0.00 0.00 0.00 56 1012.1
20260505151039 62 0 4.0 10.0 0.00 0.00 0.00 55 1012.1
20260505150537 62 37 4.0 12.0 0.00 0.00 0.00 55 1012.2
20260505140536 62 337 6.0 14.0 0.00 0.00 0.00 54 1012.3
20260505125037 64 50 3.0 14.0 0.00 0.00 0.00 52 1012.4
20260505124543 64 319 7.0 14.0 0.00 0.00 0.00 52 1012.4
20260505124036 64 306 3.0 18.0 0.00 0.00 0.00 52 1012.5
20260505123539 64 12 5.0 18.0 0.00 0.00 0.00 52 1012.5
20260505123057 64 355 6.0 12.0 0.00 0.00 0.00 50 1012.5
20260505122536 65 330 4.0 15.0 0.00 0.00 0.00 50 1012.5
20260505122037 65 5 6.0 15.0 0.00 0.00 0.00 51 1012.5
20260505121547 65 60 6.0 13.0 0.00 0.00 0.00 51 1012.6
20260505121040 65 27 6.0 13.0 0.00 0.00 0.00 53 1012.6
20260505120536 65 36 8.0 13.0 0.00 0.00 0.00 53 1012.5
20260505120056 65 40 3.0 12.0 0.00 0.00 0.00 53 1012.5
20260505115537 65 340 4.0 14.0 0.00 0.00 0.00 54 1012.6
20260505115036 65 5 5.0 14.0 0.00 0.00 0.00 55 1012.6
20260505114551 64 351 5.0 14.0 0.00 0.00 0.00 56 1012.5
20260505114037 64 27 6.0 12.0 0.00 0.00 0.00 57 1012.7
20260505113539 63 86 6.0 14.0 0.00 0.00 0.00 59 1012.7
20260505113051 63 339 5.0 14.0 0.00 0.00 0.00 59 1012.7
20260505112536 62 60 6.0 14.0 0.00 0.00 0.00 59 1012.6
20260505112036 62 17 6.0 13.0 0.00 0.00 0.00 60 1012.8
20260505111546 62 53 5.0 17.0 0.00 0.00 0.00 61 1012.7
20260505111036 62 32 7.0 17.0 0.00 0.00 0.00 59 1012.8
20260505110535 64 47 4.0 13.0 0.00 0.00 0.00 58 1012.8
20260505102037 60 5 6.0 13.0 0.00 0.00 0.00 64 1013.1
20260505101543 60 69 4.0 12.0 0.00 0.00 0.00 60 1013.1
20260505101036 60 22 7.0 12.0 0.00 0.00 0.00 61 1013.1
20260505100536 60 17 6.0 12.0 0.00 0.00 0.00 61 1013.1
20260505100048 59 66 5.0 12.0 0.00 0.00 0.00 60 1013.2
20260505095536 60 26 6.0 15.0 0.00 0.00 0.00 60 1013.2
20260505095036 60 10 6.0 15.0 0.00 0.00 0.00 61 1013.1
20260505094549 59 19 6.0 16.0 0.00 0.00 0.00 62 1013.2
20260505094036 59 42 8.0 16.0 0.00 0.00 0.00 64 1013.1
20260505093536 59 5 6.0 11.0 0.00 0.00 0.00 64 1013.3
20260505093046 60 30 5.0 11.0 0.00 0.00 0.00 63 1013.3
20260505092537 60 63 6.0 14.0 0.00 0.00 0.00 62 1013.2
20260505092036 60 30 5.0 14.0 0.00 0.00 0.00 62 1013.3
20260505091601 60 48 7.0 13.0 0.00 0.00 0.00 64 1013.3
20260505091037 59 350 5.0 13.0 0.00 0.00 0.00 66 1013.4
20260505090537 58 46 7.0 13.0 0.00 0.00 0.00 65 1013.4
20260505090055 58 32 6.0 13.0 0.00 0.00 0.00 67 1013.3
20260505085537 58 28 5.0 13.0 0.00 0.00 0.00 68 1013.3
20260505085036 58 31 5.0 12.0 0.00 0.00 0.00 68 1013.4
20260505084601 58 55 5.0 12.0 0.00 0.00 0.00 68 1013.4
20260505084037 58 38 5.0 12.0 0.00 0.00 0.00 68 1013.4
20260505083533 57 355 4.0 11.0 0.00 0.00 0.00 70 1013.5
20260505083103 57 63 4.0 11.0 0.00 0.00 0.00 70 1013.4
20260505082537 57 43 5.0 15.0 0.00 0.00 0.00 70 1013.5
20260505082037 57 37 5.0 15.0 0.00 0.00 0.00 70 1013.5
20260505081557 57 30 5.0 14.0 0.00 0.00 0.00 70 1013.5
20260505081037 57 22 5.0 14.0 0.00 0.00 0.00 69 1013.6
20260505080537 57 17 5.0 12.0 0.00 0.00 0.00 69 1013.5
20260505080057 57 24 6.0 15.0 0.00 0.00 0.00 68 1013.6
20260505075534 57 355 6.0 15.0 0.00 0.00 0.00 68 1013.5
20260505075034 57 50 7.0 14.0 0.00 0.00 0.00 67 1013.5
20260505074548 58 41 8.0 14.0 0.00 0.00 0.00 67 1013.6
20260505074034 58 74 5.0 13.0 0.00 0.00 0.00 68 1013.4
20260505073535 58 11 5.0 13.0 0.00 0.00 0.00 67 1013.3
20260505073054 57 46 5.0 13.0 0.00 0.00 0.00 68 1013.4
20260505072536 57 34 5.0 12.0 0.00 0.00 0.00 69 1013.4
20260505072036 57 9 3.0 13.0 0.00 0.00 0.00 69 1013.4
20260505071549 57 55 5.0 13.0 0.00 0.00 0.00 69 1013.4
20260505071037 57 96 3.0 10.0 0.00 0.00 0.00 71 1013.4
20260505070535 57 25 4.0 10.0 0.00 0.00 0.00 72 1013.4
20260505070052 56 19 4.0 11.0 0.00 0.00 0.00 73 1013.4
20260505065537 56 30 5.0 11.0 0.00 0.00 0.00 74 1013.5
20260505065036 56 49 4.0 11.0 0.00 0.00 0.00 75 1013.5
20260505064545 55 38 5.0 11.0 0.00 0.00 0.00 75 1013.6
20260505064038 55 46 4.0 12.0 0.00 0.00 0.00 76 1013.5
20260505063536 55 355 3.0 12.0 0.00 0.00 0.00 77 1013.5
20260505063052 55 65 3.0 9.0 0.00 0.00 0.00 77 1013.6
20260505062534 54 43 3.0 9.0 0.00 0.00 0.00 78 1013.5
20260505062034 54 30 3.0 11.0 0.00 0.00 0.00 79 1013.5
20260505061546 53 16 5.0 11.0 0.00 0.00 0.00 80 1013.4
20260505061034 53 36 4.0 9.0 0.00 0.00 0.00 80 1013.5
20260505060537 53 341 3.0 7.0 0.00 0.00 0.00 80 1013.4
20260505060101 53 42 3.0 6.0 0.00 0.00 0.00 80 1013.4
20260505055537 53 50 3.0 7.0 0.00 0.00 0.00 81 1013.5
20260505055034 53 43 3.0 7.0 0.00 0.00 0.00 81 1013.4
20260505054553 53 65 1.0 9.0 0.00 0.00 0.00 81 1013.5
20260505054039 53 32 2.0 9.0 0.00 0.00 0.00 81 1013.5
20260505053535 53 90 0.0 8.0 0.00 0.00 0.00 81 1013.4
20260505053051 53 36 2.0 8.0 0.00 0.00 0.00 81 1013.3
20260505052537 53 26 3.0 9.0 0.00 0.00 0.00 81 1013.2
20260505052038 53 32 0.0 9.0 0.00 0.00 0.00 81 1013.3
20260505051550 53 39 2.0 9.0 0.00 0.00 0.00 81 1013.2
20260505051037 53 20 1.0 8.0 0.00 0.00 0.00 81 1013.1
20260505050534 53 355 2.0 9.0 0.00 0.00 0.00 81 1013.1
20260505041555 54 0 1.0 5.0 0.00 0.00 0.00 80 1013.2
20260505041035 55 51 1.0 6.0 0.00 0.00 0.00 80 1013.2
20260505040536 55 37 1.0 6.0 0.00 0.00 0.00 80 1013.2
20260505040057 55 26 2.0 6.0 0.00 0.00 0.00 80 1013.2
20260505035535 55 24 2.0 6.0 0.00 0.00 0.00 81 1013.2
20260505035039 55 36 3.0 7.0 0.00 0.00 0.00 81 1013.2
20260505034550 55 5 3.0 7.0 0.00 0.00 0.00 81 1013.3
20260505034037 55 34 3.0 7.0 0.00 0.00 0.00 81 1013.3
20260505033536 55 40 2.0 7.0 0.00 0.00 0.00 81 1013.4
20260505033048 55 37 1.0 4.0 0.00 0.00 0.00 81 1013.5
20260505032535 55 16 2.0 4.0 0.00 0.00 0.00 81 1013.5
20260505032037 55 17 1.0 6.0 0.00 0.00 0.00 81 1013.6
20260505031548 55 26 2.0 6.0 0.00 0.00 0.00 81 1013.5
20260505031036 55 26 1.0 5.0 0.00 0.00 0.00 81 1013.5
20260505030537 55 22 1.0 5.0 0.00 0.00 0.00 81 1013.5
20260505030105 55 31 1.0 5.0 0.00 0.00 0.00 81 1013.5